Location: Goettingen
(51.5300°N, 9.9433°E)
Time: 12:16:08
(UTC+01:00)

ISS - Pass Details

Date: 25 November 2023
Orbit: 416 x 417 km, 51.6° (Epoch: 02 December)

Event Time Altitude Azimuth Distance (km) Brightness Sun altitude
Rises 18:14:24 0° 266° (W) 2,360 1.8 -17.2°
Reaches altitude 10° 18:16:30 10° 267° (W) 1,497 0.3 -17.5°
Maximum altitude 18:19:52 87° 358° (N) 424 -3.9 -18.1°
Enters shadow 18:20:23 62° 81° (E) 478 -3.9 -18.1°
